User: anonymous   Login
Location: A O Calhoun Middle School
(33.2198°N, 97.1397°W)
Time: 09:59:34
(UTC+00:00)
Language:

ADEOS - Orbit

View from above orbital plane
View from above orbital plane
View from above satellite
View from above satellite

Ground track
Ground track

The orbit data is extracted from the following two-line orbital elements,

1 24277U 96046A   22148.91619335  .00000119  00000-0  64821-4 0  9997
2 24277  98.9336 151.2850 0002344  96.5531 263.5917 14.29538551344115
Epoch (UTC): 28 May 2022 21:59:19
Eccentricity: 0.0002344
inclination: 98.9336°
perigee height: 791 km
apogee height: 795 km
right ascension of ascending node: 151.2850°
argument of perigee: 96.5531°
revolutions per day: 14.29538551
mean anomaly at epoch: 263.5917°
orbit number at epoch: 34411

The dashed part of the orbit path shows where the satellite is in the earth's shadow,  

DLR